Stations météo

réclame
Mon MeteoGroup
Stornoway, Grande-Bretagne (3026): Température de l'air & dewpoint: 09.09.2019 07:00:00 - 15.09.2019 07:00:00 (BST)Stornoway, Grande-Bretagne (3026): Température de l'air -20cm & Température de l'air -100cm: 09.09.2019 07:00:00 - 15.09.2019 07:00:00 (BST)Stornoway, Grande-Bretagne (3026): Vitesse du vent & gusts: 09.09.2019 07:00:00 - 15.09.2019 07:00:00 (BST)Stornoway, Grande-Bretagne (3026): Direction du vent: 09.09.2019 07:00:00 - 15.09.2019 07:00:00 (BST)Stornoway, Grande-Bretagne (3026): reduced air pressure: 09.09.2019 07:00:00 - 15.09.2019 07:00:00 (BST)Stornoway, Grande-Bretagne (3026): visibility: 09.09.2019 07:00:00 - 15.09.2019 07:00:00 (BST)Stornoway, Grande-Bretagne (3026): Ensoleillement: 09.09.2019 07:00:00 - 15.09.2019 07:00:00 (BST)Stornoway, Grande-Bretagne (3026): Quantités de précipitations: 09.09.2019 07:00:00 - 15.09.2019 07:00:00 (BST)
Date & Time tt [°C] td [°C] tt -20cm [°C] tt -100cm [°C] ff [km/h] ff [knt] fx [km/h] fx [knt] dd ppp [hPa] vv [km] sd [min] rr [mm]
15.09.2019 07:00:00 - - - - - - - - - - - - -
15.09.2019 06:00:00 10,6 5,1 - - 35 19 57 31 W 1016,2 20 0 0,0
15.09.2019 05:00:00 10,6 4,9 - - 37 20 61 33 WNW 1015,8 18 0 0,0
15.09.2019 04:00:00 10,6 5,6 - - 39 21 59 32 W 1015,3 18 0 0,0
15.09.2019 03:00:00 10,5 5,3 - - 39 21 61 33 W 1015,2 19 0 0,0
15.09.2019 02:00:00 10,6 4,4 - - 42 23 68 37 W 1014,6 21 0 0,0
15.09.2019 01:00:00 10,5 6,3 - - 41 22 70 38 W 1013,9 17 - 0,0
15.09.2019 00:00:00 11,3 6,6 - - 46 25 68 37 W 1013,5 25 0 0,0
14.09.2019 23:00:00 11,2 7,3 - - 39 21 61 33 W 1013,1 21 0 0,0
14.09.2019 22:00:00 11,7 7,5 - - 39 21 63 34 W 1012,6 20 0 0,0
14.09.2019 21:00:00 12,0 8,6 - - 35 19 63 34 WSW 1012,4 20 0 0,0
14.09.2019 20:00:00 12,0 8,4 - - 37 20 61 33 W 1012,3 20 0 0,0
14.09.2019 19:00:00 12,3 9,2 - - 37 20 59 32 W 1011,9 19 0 0,0
14.09.2019 18:00:00 12,8 10,0 - - 37 20 63 34 W 1011,5 20 0 0,0
14.09.2019 17:00:00 13,2 11,3 - - 41 22 67 36 W 1011,5 14 0 0,6
14.09.2019 16:00:00 14,6 13,9 - - 50 27 74 40 WSW 1010,7 13 0 0,2
14.09.2019 15:00:00 15,0 14,1 - - 50 27 72 39 WSW 1011,2 28 0 1,6
14.09.2019 14:00:00 14,9 14,3 - - 46 25 80 43 SW 1011,5 2,9 0 3,0
14.09.2019 13:00:00 14,8 13,9 - - 54 29 81 44 SW 1012,2 6 0 0,6
14.09.2019 12:00:00 14,9 13,9 - - 55 30 83 45 SW 1012,6 14 0 0,2
14.09.2019 11:00:00 14,3 13,7 - - 54 29 74 40 SW 1013,6 10 0 0,2
14.09.2019 10:00:00 13,5 13,0 13,0 13,0 54 29 83 45 SSW 1014,3 4,8 0 0,4
14.09.2019 09:00:00 12,9 12,5 - - 52 28 78 42 SSW 1015,7 12 0 0,4
14.09.2019 08:00:00 12,1 11,6 - - 55 30 80 43 SSW 1017,2 7 0 1,2
14.09.2019 07:00:00 11,5 11,1 - - 50 27 76 41 SSW 1018,5 12 0 2,8
14.09.2019 06:00:00 12,4 11,1 - - 46 25 74 40 SSW 1019,8 8 0 0,2
14.09.2019 05:00:00 12,8 10,4 - - 39 21 59 32 SSW 1022,2 30 0 0,0
14.09.2019 04:00:00 12,5 10,6 - - 37 20 54 29 SSW 1024,0 30 0 0,0
14.09.2019 03:00:00 12,5 10,9 - - 34 18 46 25 SSW 1025,6 30 0 0,0
14.09.2019 02:00:00 12,4 10,9 - - 31 17 - - SSW 1027,1 30 0 0,0
14.09.2019 01:00:00 12,3 11,1 - - 26 14 - - SSW 1027,8 30 - 0,0
14.09.2019 00:00:00 11,4 10,8 - - 16 9 - - SSW 1028,8 30 0 0,2
13.09.2019 23:00:00 11,7 10,1 - - 26 14 - - WSW 1029,6 50 0 0,0
13.09.2019 22:00:00 11,8 10,7 - - 21 11 - - WSW 1029,6 25 0 0,0
13.09.2019 21:00:00 12,1 10,6 - - 28 15 46 25 WSW 1029,7 40 0 0,0
13.09.2019 20:00:00 11,8 10,9 - - 26 14 48 26 WSW 1029,6 35 0 0,4
13.09.2019 19:00:00 12,2 10,8 - - 26 14 46 25 WSW 1029,7 4,1 0 0,2
13.09.2019 18:00:00 12,6 11,0 - - 28 15 46 25 WSW 1029,7 30 0 0,4
13.09.2019 17:00:00 12,4 11,2 - - 31 17 54 29 WSW 1029,8 35 0 1,4
13.09.2019 16:00:00 14,0 9,4 - - 37 20 54 29 WSW 1030,0 35 18 0,0
13.09.2019 15:00:00 15,0 9,5 - - 37 20 59 32 WSW 1029,8 35 48 0,0
13.09.2019 14:00:00 14,5 10,8 - - 35 19 59 32 WSW 1029,9 35 36 0,2
13.09.2019 13:00:00 13,6 8,5 - - 37 20 61 33 W 1029,6 22 36 0,0
13.09.2019 12:00:00 13,6 9,9 - - 41 22 59 32 WSW 1029,0 30 30 0,0
13.09.2019 11:00:00 13,6 8,5 - - 37 20 52 28 WSW 1028,9 35 54 0,0
13.09.2019 10:00:00 12,5 9,9 13,0 13,2 24 13 - - WSW 1028,5 30 24 0,4
13.09.2019 09:00:00 11,4 9,4 - - 24 13 - - WSW 1027,8 35 18 0,2
13.09.2019 08:00:00 9,7 7,7 - - 24 13 - - W 1027,3 55 0 0,4
13.09.2019 07:00:00 10,2 8,4 - - 21 11 - - W 1027,0 13 0 0,2
13.09.2019 06:00:00 10,2 7,8 - - 24 13 - - WSW 1026,4 35 0 0,0
13.09.2019 05:00:00 9,7 7,5 - - 18 10 - - WSW 1025,8 35 0 0,0
13.09.2019 04:00:00 9,6 7,3 - - 21 11 - - WSW 1025,6 35 0 0,0
13.09.2019 03:00:00 9,4 7,1 - - 18 10 - - W 1025,2 35 0 0,0
13.09.2019 02:00:00 9,5 7,7 - - 16 9 - - WSW 1024,9 35 0 0,0
13.09.2019 01:00:00 10,0 7,9 - - 28 15 48 26 W 1024,3 45 - 0,4
13.09.2019 00:00:00 9,4 7,6 - - 18 10 - - WSW 1023,7 45 0 0,0
12.09.2019 23:00:00 9,8 7,9 - - 22 12 48 26 W 1022,9 50 0 0,2
12.09.2019 22:00:00 9,2 7,2 - - 16 9 - - WSW 1022,5 60 0 0,0
12.09.2019 21:00:00 10,3 8,4 - - 21 11 - - WSW 1021,9 40 0 0,0
12.09.2019 20:00:00 10,6 8,3 - - 16 9 - - WSW 1021,5 45 12 0,0
12.09.2019 19:00:00 12,5 8,5 - - 21 11 - - W 1020,8 40 30 0,0
12.09.2019 18:00:00 12,5 8,5 - - 24 13 46 25 W 1020,2 60 6 0,0
12.09.2019 17:00:00 13,4 7,2 - - 35 19 50 27 W 1019,7 45 36 0,0
12.09.2019 16:00:00 13,9 8,2 - - 34 18 50 27 W 1018,9 45 24 0,0
12.09.2019 15:00:00 14,4 8,9 - - 31 17 46 25 W 1018,2 40 48 0,0
12.09.2019 14:00:00 14,0 8,2 - - 35 19 48 26 W 1017,2 45 48 0,0
12.09.2019 13:00:00 13,4 9,0 - - 37 20 52 28 W 1016,2 55 36 0,0
12.09.2019 12:00:00 13,6 10,6 - - 31 17 52 28 W 1015,5 70 30 0,2
12.09.2019 11:00:00 12,5 9,2 - - 26 14 - - W 1014,7 60 0 0,0
12.09.2019 10:00:00 11,9 10,4 13,2 13,2 22 12 - - WSW 1014,0 50 6 0,4
12.09.2019 09:00:00 11,1 9,8 - - 22 12 - - SW 1013,5 13 0 0,2
12.09.2019 08:00:00 10,7 9,8 - - 18 10 - - WSW 1012,9 29 0 1,0
12.09.2019 07:00:00 10,8 9,8 - - 16 9 - - SW 1012,6 40 0 0,0
12.09.2019 06:00:00 10,8 9,6 - - 22 12 - - SW 1012,0 50 0 0,4
12.09.2019 05:00:00 10,9 10,0 - - 18 10 - - SW 1012,0 15 0 0,2
12.09.2019 04:00:00 10,6 9,2 - - 22 12 50 27 WSW 1012,2 50 0 0,0
12.09.2019 03:00:00 10,7 9,8 - - 24 13 - - WSW 1012,3 75 0 0,2
12.09.2019 02:00:00 11,3 9,8 - - 28 15 - - WSW 1011,9 55 0 0,0
12.09.2019 01:00:00 11,5 10,0 - - 29 16 48 26 WSW 1012,1 3,2 - 0,0
12.09.2019 00:00:00 11,9 10,3 - - 24 13 48 26 WSW 1011,5 35 0 0,0
11.09.2019 23:00:00 12,1 10,4 - - 26 14 - - WSW 1011,2 30 0 0,0
11.09.2019 22:00:00 12,2 10,2 - - 29 16 - - WSW 1010,8 30 0 0,0
11.09.2019 21:00:00 12,3 10,5 - - 26 14 - - WSW 1010,5 30 0 0,0
11.09.2019 20:00:00 12,6 10,4 - - 24 13 - - WSW 1009,9 35 0 0,0
11.09.2019 19:00:00 12,7 11,0 - - 34 18 46 25 WSW 1009,1 40 18 0,0
11.09.2019 18:00:00 13,4 11,2 - - 29 16 48 26 WSW 1008,4 6 18 0,0
11.09.2019 17:00:00 13,8 11,2 - - 31 17 67 36 WSW 1007,4 18 12 0,4
11.09.2019 16:00:00 13,6 11,5 - - 34 18 61 33 WSW 1006,9 2,8 6 0,0
11.09.2019 15:00:00 14,6 10,4 - - 41 22 61 33 W 1006,0 35 24 0,0
11.09.2019 14:00:00 14,4 9,8 - - 42 23 68 37 W 1005,3 45 18 0,0
11.09.2019 13:00:00 13,8 10,4 - - 44 24 59 32 W 1004,0 35 24 0,0
11.09.2019 12:00:00 12,6 11,4 - - 42 23 65 35 WSW 1002,9 20 30 0,4
11.09.2019 11:00:00 13,8 10,5 - - 37 20 59 32 WSW 1002,1 29 42 0,0
11.09.2019 10:00:00 13,7 10,8 13,0 13,2 39 21 61 33 WSW 1001,3 30 48 0,0
11.09.2019 09:00:00 13,0 10,5 - - 34 18 48 26 WSW 1000,6 27 36 0,0
11.09.2019 08:00:00 12,0 9,9 - - 29 16 57 31 W 999,8 30 6 0,0
11.09.2019 07:00:00 12,1 10,6 - - 35 19 50 27 WSW 998,8 21 0 0,0
11.09.2019 06:00:00 11,9 10,8 - - 31 17 - - WSW 998,1 25 0 0,0
11.09.2019 05:00:00 12,0 11,4 - - 28 15 - - WSW 997,7 26 0 3,8
11.09.2019 04:00:00 12,2 11,6 - - 29 16 48 26 SW 997,3 4,4 0 0,4
11.09.2019 03:00:00 12,6 11,1 - - 34 18 48 26 WSW 997,7 40 0 0,0
11.09.2019 02:00:00 12,7 11,9 - - 28 15 48 26 WSW 997,4 40 0 0,0
11.09.2019 01:00:00 14,0 13,8 - - 26 14 - - WSW 997,1 1,5 - 1,0
11.09.2019 00:00:00 14,2 13,9 - - 29 16 48 26 SW 996,6 75 0 0,2
10.09.2019 23:00:00 14,6 14,3 - - 24 13 57 31 SW 996,5 55 0 0,2
10.09.2019 22:00:00 14,4 14,1 - - 44 24 67 36 SSW 997,2 6 0 0,2
10.09.2019 21:00:00 13,8 13,4 - - 54 29 76 41 SSW 997,4 9 0 0,2
10.09.2019 20:00:00 13,0 12,6 - - 50 27 80 43 SSW 999,1 10 0 0,4
10.09.2019 19:00:00 12,2 11,8 - - 52 28 81 44 S 1000,8 4,6 0 2,0
10.09.2019 18:00:00 11,7 11,0 - - 54 29 78 42 S 1002,6 7 0 1,8
10.09.2019 17:00:00 11,6 10,7 - - 54 29 76 41 S 1004,7 10 0 0,0
10.09.2019 16:00:00 12,0 10,9 - - 52 28 78 42 SSW 1006,5 15 0 0,4
10.09.2019 15:00:00 12,1 10,1 - - 44 24 68 37 SSW 1008,2 16 0 0,2
10.09.2019 14:00:00 12,6 9,1 - - 44 24 63 34 SSW 1009,5 29 0 0,0
10.09.2019 13:00:00 13,2 9,7 - - 34 18 52 28 SSW 1011,5 45 0 0,0
10.09.2019 12:00:00 12,9 9,4 - - 37 20 50 27 SSW 1012,1 40 0 0,0
10.09.2019 11:00:00 12,5 9,4 - - 34 18 - - S 1012,9 35 0 0,0
10.09.2019 10:00:00 12,1 9,9 13,2 13,2 26 14 - - SSW 1014,0 28 6 0,0
10.09.2019 09:00:00 11,0 10,3 - - 16 9 - - SSW 1015,5 23 0 0,0
10.09.2019 08:00:00 8,8 8,6 - - 9 5 - - SW 1015,8 28 0 0,0
10.09.2019 07:00:00 6,4 6,3 - - 5 3 - - WSW 1015,6 35 0 0,0
10.09.2019 06:00:00 6,5 6,3 - - 4 2 - - WSW 1015,6 26 0 0,0
10.09.2019 05:00:00 6,3 5,9 - - 5 3 - - WSW 1015,7 30 0 0,0
10.09.2019 04:00:00 6,8 6,4 - - 9 5 - - WSW 1016,1 35 0 0,0
10.09.2019 03:00:00 6,9 6,6 - - 11 6 - - W 1016,4 35 0 0,0
10.09.2019 02:00:00 7,5 7,2 - - 11 6 - - WSW 1016,2 35 0 0,2
10.09.2019 01:00:00 7,0 6,6 - - 9 5 - - WSW 1016,1 35 - 0,0
10.09.2019 00:00:00 6,6 5,8 - - 9 5 - - W 1016,1 35 0 0,0
09.09.2019 23:00:00 7,7 6,6 - - 8 4 - - W 1015,7 35 0 0,0
09.09.2019 22:00:00 8,3 7,2 - - 11 6 - - WNW 1015,4 45 0 0,0
09.09.2019 21:00:00 9,1 7,9 - - 11 6 - - WNW 1015,2 55 0 0,0
09.09.2019 20:00:00 11,1 8,9 - - 13 7 - - NW 1014,6 55 36 0,0
09.09.2019 19:00:00 13,1 9,8 - - 16 9 - - NNW 1013,7 60 36 0,0
09.09.2019 18:00:00 12,9 9,7 - - 22 12 - - NNW 1012,9 65 0 0,0
09.09.2019 17:00:00 13,0 10,4 - - 24 13 - - NNW 1012,1 55 0 0,0
09.09.2019 16:00:00 13,2 10,9 - - 21 11 - - N 1011,4 50 0 0,0
09.09.2019 15:00:00 12,2 11,0 - - 18 10 - - N 1011,0 20 0 0,0
09.09.2019 14:00:00 11,8 9,7 - - 26 14 - - NNW 1010,7 60 0 0,0
09.09.2019 13:00:00 12,3 10,8 - - 28 15 - - N 1010,1 50 0 0,0
09.09.2019 12:00:00 11,8 11,2 - - 26 14 - - N 1009,7 18 0 0,6
09.09.2019 11:00:00 11,5 11,0 - - 26 14 - - NNW 1009,0 17 0 0,6
09.09.2019 10:00:00 11,4 11,1 13,5 13,4 31 17 - - NNW 1008,6 13 0 1,4
09.09.2019 09:00:00 11,4 11,0 - - 34 18 - - NNW 1008,0 6 0 1,6
09.09.2019 08:00:00 11,9 11,8 - - 22 12 - - WNW 1007,6 9 0 0,6
09.09.2019 07:00:00 12,3 12,1 - - 15 8 - - WNW 1007,6 18 0 0,4

tt = Température de l'air
td = dewpoint
tt -20cm = Température de l'air -20cm
tt -100cm = Température de l'air -100cm
ff = Vitesse du vent
fx = gusts
dd = Direction du vent
ppp = reduced air pressure
vv = visibility
sd = Ensoleillement
rr = Quantités de précipitations

stations d'obs. à proximité